Location: Seattle
(47.6064°N, 122.3308°W)
Time: 14:20:22
(UTC-08:00)

SR - Pass Details

Date: 01 December 2020
Orbit: 575 x 880 km, 66.7° (Epoch: 23 January)

Event Time Altitude Azimuth Distance (km) Brightness Sun altitude
Rises 18:09:46 0° 216° (SW) 2,808 ? -17.9°
Reaches altitude 10° 18:11:56 10° 217° (SW) 1,935 ? -18.2°
Maximum altitude 18:16:16 80° 305° (NW) 641 ? -18.9°
Enters shadow 18:18:33 30° 29° (NNE) 1,171 ? -19.3°
